Kremmling, CO

11:28 PM MDT on May 27, 2017 (GMT -0600)
Kremmling

Weather History for K20V - June, 2013

Change the Weather History Date:

Wednesday, June 26, 2013

  Actual Average Record
Temperature  
Mean Temperature 63 °F -  
Max Temperature 89 °F - 93 °F (2007)
Min Temperature 37 °F - 35 °F (2011)
Degree Days  
Heating Degree Days 2    
Month to date heating degree days  
Cooling Degree Days 0    
Month to date cooling degree days  
Growing Degree Days 13 (Base 50)    
Moisture  
Dew Point 29 °F    
Average Humidity 37    
Maximum Humidity 81    
Minimum Humidity 7    
Precipitation  
Precipitation 0.00 in - 0.11 in (2010)
Sea Level Pressure  
Sea Level Pressure 30.32 in    
Wind  
Wind Speed 2 mph (SW)    
Max Wind Speed 14 mph    
Max Gust Speed 25 mph    
Visibility 10 miles    
Events      
T = Trace of Precipitation, MM = Missing Value Source: NWS Daily Summary

Daily Weather History Graph

Daily Weather History Graph

Search for Another Location

Airport or City:

Trip Planner

Search our weather history database for the weather conditions in past years. The results will help you decide how hot, cold, wet, or windy it might be!

Date:

Astronomy

Jun. 26, 2013 Rise Set
Actual Time 5:38 AM MDT 8:38 PM MDT
Civil Twilight 5:05 AM MDT 9:11 PM MDT
Nautical Twilight 4:23 AM MDT 9:53 PM MDT
Astronomical Twilight 3:34 AM MDT 10:41 PM MDT
Moon 11:03 PM MDT (6/26) 9:33 AM MDT (6/26)
Length of Visible Light 16h 06m
Length of Day
15h 00m
Waning Gibbous, 85% of the Moon is Illuminated
Jun 26
Waning Gibbous
Jun 29
Last Quarter
Jul 8
New
Jul 15
First Quarter
Jul 22
Full

Hourly Weather History & Observations

Time (MDT) Temp. Dew Point Humidity Pressure Visibility Wind Dir Wind Speed Gust Speed Precip Events Conditions
12:16 AM 50.0 °F 33.8 °F 54% 30.29 in 10.0 mi Calm Calm - N/A   Clear
12:36 AM 48.2 °F 32.0 °F 54% 30.29 in 10.0 mi Calm Calm - N/A   Clear
12:56 AM 50.0 °F 33.8 °F 54% 30.29 in 10.0 mi Calm Calm - N/A   Clear
1:15 AM 44.6 °F 32.0 °F 61% 30.29 in 10.0 mi Calm Calm - N/A   Clear
1:36 AM 42.8 °F 32.0 °F 66% 30.29 in 10.0 mi Calm Calm - N/A   Clear
1:56 AM 42.8 °F 32.0 °F 66% 30.29 in 10.0 mi Calm Calm - N/A   Clear
2:16 AM 42.8 °F 32.0 °F 66% 30.29 in 10.0 mi Calm Calm - N/A   Clear
2:36 AM 42.8 °F 32.0 °F 66% 30.30 in 10.0 mi Calm Calm - N/A   Clear
2:56 AM 42.8 °F 33.8 °F 70% 30.30 in 10.0 mi Calm Calm - N/A   Clear
3:16 AM 39.2 °F 32.0 °F 75% 30.30 in 10.0 mi Calm Calm - N/A   Clear
3:36 AM 41.0 °F 32.0 °F 70% 30.30 in 10.0 mi Calm Calm - N/A   Clear
3:56 AM 41.0 °F 32.0 °F 70% 30.31 in 10.0 mi Calm Calm - N/A   Clear
4:16 AM 41.0 °F 32.0 °F 70% 30.31 in 10.0 mi Calm Calm - N/A   Clear
4:36 AM 39.2 °F 32.0 °F 75% 30.32 in 10.0 mi Calm Calm - N/A   Clear
4:56 AM 37.4 °F 32.0 °F 81% 30.32 in 10.0 mi Calm Calm - N/A   Clear
5:16 AM 37.4 °F 32.0 °F 81% 30.33 in 10.0 mi Calm Calm - N/A   Clear
5:36 AM 37.4 °F 32.0 °F 81% 30.33 in 10.0 mi Calm Calm - N/A   Clear
5:56 AM 37.4 °F 32.0 °F 81% 30.34 in 10.0 mi Calm Calm - N/A   Clear
6:16 AM 37.4 °F 32.0 °F 81% 30.35 in 10.0 mi Calm Calm - N/A   Clear
6:35 AM 41.0 °F 32.0 °F 70% 30.36 in 10.0 mi Calm Calm - N/A   Clear
6:56 AM 42.8 °F 33.8 °F 70% 30.36 in 10.0 mi Calm Calm - N/A   Clear
7:16 AM 46.4 °F 35.6 °F 66% 30.37 in 10.0 mi Calm Calm - N/A   Clear
7:36 AM 50.0 °F 35.6 °F 58% 30.37 in 10.0 mi Calm Calm - N/A   Clear
7:56 AM 50.0 °F 35.6 °F 58% 30.38 in 10.0 mi Calm Calm - N/A   Clear
8:16 AM 51.8 °F 35.6 °F 54% 30.38 in 10.0 mi Calm Calm - N/A   Clear
8:36 AM 53.6 °F 35.6 °F 51% 30.38 in 10.0 mi Calm Calm - N/A   Clear
8:55 AM 55.4 °F 33.8 °F 44% 30.38 in 10.0 mi Calm Calm - N/A   Clear
9:16 AM 59.0 °F 32.0 °F 36% 30.38 in 10.0 mi Calm Calm - N/A   Clear
9:36 AM 60.8 °F 32.0 °F 34% 30.37 in 10.0 mi Calm Calm - N/A   Clear
9:56 AM 62.6 °F 33.8 °F 34% 30.37 in 10.0 mi Calm Calm - N/A   Clear
10:16 AM 64.4 °F 33.8 °F 32% 30.36 in 10.0 mi West 3.5 mph - N/A   Clear
10:36 AM 69.8 °F 33.8 °F 27% 30.36 in 10.0 mi Calm Calm - N/A   Clear
10:56 AM 69.8 °F 33.8 °F 27% 30.35 in 10.0 mi Calm Calm - N/A   Clear
11:16 AM 73.4 °F 32.0 °F 22% 30.35 in 10.0 mi ESE 4.6 mph - N/A   Clear
11:36 AM 77.0 °F 32.0 °F 19% 30.34 in 10.0 mi SE 5.8 mph - N/A   Clear
11:56 AM 78.8 °F 30.2 °F 17% 30.33 in 10.0 mi WSW 5.8 mph - N/A   Clear
12:15 PM 80.6 °F 24.8 °F 13% 30.32 in 10.0 mi SSE 3.5 mph - N/A   Scattered Clouds
12:36 PM 82.4 °F 24.8 °F 12% 30.32 in 10.0 mi SW 12.7 mph 20.7 mph N/A   Scattered Clouds
12:56 PM 82.4 °F 23.0 °F 11% 30.32 in 10.0 mi SW 13.8 mph 19.6 mph N/A   Scattered Clouds
1:16 PM 87.8 °F 23.0 °F 9% 30.31 in 10.0 mi SW 10.4 mph 21.9 mph N/A   Scattered Clouds
1:36 PM 82.4 °F 23.0 °F 11% 30.31 in 10.0 mi West 10.4 mph - N/A   Clear
1:56 PM 82.4 °F 23.0 °F 11% 30.30 in 10.0 mi WSW 10.4 mph - N/A   Scattered Clouds
2:16 PM 86.0 °F 23.0 °F 10% 30.31 in 10.0 mi SW 13.8 mph 18.4 mph N/A   Scattered Clouds
2:35 PM 89.6 °F 23.0 °F 9% 30.30 in 10.0 mi WSW 11.5 mph 21.9 mph N/A   Clear
2:56 PM 89.6 °F 21.2 °F 8% 30.29 in 10.0 mi SSW 13.8 mph 20.7 mph N/A   Scattered Clouds
3:16 PM 89.6 °F 21.2 °F 8% 30.29 in 10.0 mi South 3.5 mph - N/A   Scattered Clouds
3:36 PM 89.6 °F 19.4 °F 8% 30.30 in 10.0 mi WSW 10.4 mph 18.4 mph N/A   Clear
3:56 PM 89.6 °F 21.2 °F 8% 30.29 in 10.0 mi WSW 11.5 mph 17.3 mph N/A   Clear
4:16 PM 89.6 °F 17.6 °F 7% 30.29 in 10.0 mi South 3.5 mph - N/A   Clear
4:36 PM 89.6 °F 19.4 °F 8% 30.29 in 10.0 mi WSW 10.4 mph - N/A   Clear
4:56 PM 89.6 °F 17.6 °F 7% 30.29 in 10.0 mi SW 12.7 mph 18.4 mph N/A   Clear
5:16 PM 89.6 °F 17.6 °F 7% 30.28 in 10.0 mi SW 8.1 mph - N/A   Clear
5:36 PM 89.6 °F 19.4 °F 8% 30.28 in 10.0 mi WSW 12.7 mph 25.3 mph N/A   Clear
5:56 PM 89.6 °F 19.4 °F 8% 30.28 in 10.0 mi WSW 9.2 mph - N/A   Clear
6:16 PM 89.6 °F 21.2 °F 8% 30.28 in 10.0 mi SW 9.2 mph - N/A   Clear
6:36 PM 87.8 °F 19.4 °F 8% 30.28 in 10.0 mi WSW 6.9 mph 10.4 mph N/A   Clear
6:56 PM 87.8 °F 21.2 °F 9% 30.29 in 10.0 mi WSW 8.1 mph - N/A   Clear
7:16 PM 82.4 °F 21.2 °F 10% 30.29 in 10.0 mi WSW 4.6 mph - N/A   Clear
7:36 PM 80.6 °F 24.8 °F 13% 30.29 in 10.0 mi WSW 4.6 mph - N/A   Clear
7:56 PM 78.8 °F 28.4 °F 16% 30.30 in 10.0 mi West 4.6 mph - N/A   Clear
8:16 PM 78.8 °F 28.4 °F 16% 30.31 in 10.0 mi NNW 6.9 mph - N/A   Clear
8:36 PM 77.0 °F 26.6 °F 16% 30.32 in 10.0 mi NNW 8.1 mph - N/A   Clear
8:56 PM 75.2 °F 28.4 °F 18% 30.32 in 10.0 mi NW 5.8 mph - N/A   Clear
9:15 PM 71.6 °F 30.2 °F 22% 30.33 in 10.0 mi Calm Calm - N/A   Clear
9:36 PM 69.8 °F 35.6 °F 28% 30.35 in 10.0 mi Calm Calm - N/A   Clear
9:56 PM 62.6 °F 32.0 °F 32% 30.36 in 10.0 mi Calm Calm - N/A   Clear
10:16 PM 64.4 °F 32.0 °F 30% 30.37 in 10.0 mi Calm Calm - N/A   Clear
10:36 PM 60.8 °F 33.8 °F 36% 30.37 in 10.0 mi Calm Calm - N/A   Clear
10:56 PM 59.0 °F 32.0 °F 36% 30.38 in 10.0 mi Calm Calm - N/A   Clear
11:16 PM 55.4 °F 33.8 °F 44% 30.38 in 10.0 mi Calm Calm - N/A   Clear
11:35 PM 55.4 °F 33.8 °F 44% 30.38 in 10.0 mi Calm Calm - N/A   Clear
11:56 PM 53.6 °F 33.8 °F 47% 30.38 in 10.0 mi SE 4.6 mph - N/A   Clear